Flag for Brazil Weather past 2 weeks in São José do Rio Preto, São Paulo, Brazil

Now
68 °F

Sunny.


Feels Like: 68 °F
Forecast: 63 / 76 °F
Wind: 2 mph from Southeast

Location: Leite Lopes / Ribeir

Current Time: Jul 24, 2014 at 8:35:19 AM

Latest Report: Jul 24, 2014 at 8:00 AM


Visibility: 10 mi

Pressure: 30.01 "Hg

Humidity: 53%

Dew point: 50 °F

Location of São José do Rio PretoLocation

Historic Weather in São José do Rio Preto — Graph

°F

São José do Rio Preto temperature yesterday

Maximum temperature yesterday: 86 °F (at 2:00 PM)
Minimum temperature yesterday: 61 °F (at 6:00 AM)
Average temperature yesterday: 74 °F

Past Weeks' High & Low Weather Summary

 TemperatureHumidityPressure
High86 °F (Jul 17, 3:00 PM)94% (Jul 10, 2:00 AM)30.30 "Hg (Jul 10, 2:00 AM)
Low48 °F (Jul 20, 3:00 AM)15% (Jul 20, 5:00 PM)29.98 "Hg (Jul 23, 4:00 PM)
Average68 °F57%30.14 "Hg
* Reported Jul 9 7:00 AM — Jul 24 7:00 AM, São José do Rio Preto, Weather by CustomWeather, © 2014

Note: Actual official high and low records may vary slightly from our data, if they occured in-between our weather recording intervals... More about our weather records

Advertising

São José do Rio Preto weather history for previous 24 hours

 ConditionsComfort  
Time TempWeatherWind HumidityBarometerVisibility
7:00 AM
Jul 24
64 °FSunny.2 mph60%30.01 "Hg10 mi
6:00 AM66 °FSunny.2 mph56%30.01 "Hg10 mi
5:00 AM66 °FClear.5 mph56%29.98 "Hg10 mi
4:00 AM68 °FClear.No wind53%29.98 "Hg10 mi
3:00 AM66 °FClear.No wind56%29.98 "Hg10 mi
2:00 AM66 °FClear.1 mph56%29.98 "Hg10 mi
1:00 AM66 °FClear.2 mph56%30.01 "Hg10 mi
12:00 AM70 °FClear.No wind50%30.01 "Hg10 mi
11:00 PM
Jul 23
70 °FClear.5 mph50%30.04 "Hg10 mi
10:00 PM73 °FClear.6 mph41%30.04 "Hg10 mi
9:00 PM75 °FClear.3 mph36%30.04 "Hg10 mi
8:00 PM75 °FClear.3 mph36%30.01 "Hg10 mi
7:00 PM75 °FClear.2 mph36%30.01 "Hg10 mi
6:00 PM79 °FClear.3 mph32%29.98 "Hg10 mi
5:00 PM84 °FClear.7 mph25%29.98 "Hg10 mi
4:00 PM84 °FSunny.8 mph25%29.98 "Hg10 mi
3:00 PM86 °FSunny.6 mph22%30.01 "Hg10 mi
2:00 PM86 °FSunny.8 mph22%30.04 "Hg10 mi
1:00 PM84 °FSunny.8 mph22%30.07 "Hg10 mi
12:00 PM84 °FSunny.9 mph25%30.09 "Hg10 mi
11:00 AM81 °FSunny.8 mph28%30.12 "Hg10 mi
10:00 AM75 °FSunny.9 mph39%30.15 "Hg10 mi
9:00 AM66 °FSunny.10 mph52%30.15 "Hg10 mi
8:00 AM63 °FSunny.10 mph56%30.15 "Hg10 mi
Weather by CustomWeather, © 2014

See weather overviewHow to use our weather pages